CW3821 Weather Reports


Display with metric or nautical units.
time (UTC)temp
F
wind
direction
speed
MPH
gust
MPH
rain 1hr
in
rain 24hr
in
rain mn
in
humidity
%
barometer
mb
20240302184541 64 181 4.0 0.0 0.00 0.00 0.00 9 994.1
20240302183039 64 64 3.0 0.0 0.00 0.00 0.00 9 994.2
20240302181559 64 133 5.0 0.0 0.00 0.00 0.00 11 995.0
20240302181502 63 169 5.0 0.0 0.00 0.00 0.00 11 995.0
20240302180055 63 191 5.0 0.0 0.00 0.00 0.00 11 995.6
20240302174543 63 158 5.0 0.0 0.00 0.00 0.00 11 995.8
20240302173044 62 176 5.0 0.0 0.00 0.00 0.00 12 996.5
20240302171529 60 150 6.0 0.0 0.00 0.00 0.00 13 996.8
20240302170027 59 150 7.0 0.0 0.00 0.00 0.00 13 997.2
20240302164513 57 162 7.0 0.0 0.00 0.00 0.00 14 997.5
20240302163011 56 189 7.0 0.0 0.00 0.00 0.00 17 998.1
20240302161549 55 176 7.0 0.0 0.00 0.00 0.00 19 998.5
20240302160037 53 140 8.0 0.0 0.00 0.00 0.00 21 998.2
20240302154537 52 181 6.0 0.0 0.00 0.00 0.00 22 998.7
20240302153011 51 182 5.0 0.0 0.00 0.00 0.00 23 999.0
20240302151611 49 178 1.0 0.0 0.00 0.00 0.00 25 999.2
20240302151503 49 178 1.0 0.0 0.00 0.00 0.00 25 999.2
20240302150055 47 281 0.0 0.0 0.00 0.00 0.00 26 1000.0
20240302144559 42 275 0.0 0.0 0.00 0.00 0.00 31 1000.8
20240302143035 39 275 0.0 0.0 0.00 0.00 0.00 34 1000.5
20240302141544 38 354 0.0 0.0 0.00 0.00 0.00 34 1000.7
20240302140034 39 354 0.0 0.0 0.00 0.00 0.00 33 999.5
20240302134552 39 144 3.0 0.0 0.00 0.00 0.00 33 999.6
20240302133037 40 306 0.0 0.0 0.00 0.00 0.00 29 999.6
20240302131536 39 308 1.0 0.0 0.00 0.00 0.00 31 999.6
20240302130027 39 291 2.0 0.0 0.00 0.00 0.00 33 999.0
20240302124505 38 330 1.0 0.0 0.00 0.00 0.00 32 999.3
20240302123005 36 281 1.0 0.0 0.00 0.00 0.00 37 999.4
20240302121545 36 298 1.0 0.0 0.00 0.00 0.00 40 999.0
20240302120024 39 349 1.0 0.0 0.00 0.00 0.00 34 998.9
20240302114506 36 333 1.0 0.0 0.00 0.00 0.00 35 999.2
20240302113027 39 316 0.0 0.0 0.00 0.00 0.00 34 999.1
20240302111505 40 315 1.0 0.0 0.00 0.00 0.00 30 998.7
20240302110042 41 316 0.0 0.0 0.00 0.00 0.00 28 999.2
20240302104531 36 315 2.0 0.0 0.00 0.00 0.00 37 999.7
20240302103036 37 309 1.0 0.0 0.00 0.00 0.00 34 999.4
20240302101523 37 302 1.0 0.0 0.00 0.00 0.00 37 1000.0
20240302100016 36 302 2.0 0.0 0.00 0.00 0.00 38 999.6
20240302094553 38 305 1.0 0.0 0.00 0.00 0.00 35 999.3
20240302093022 41 337 2.0 0.0 0.00 0.00 0.00 28 999.0
20240302091519 40 339 1.0 0.0 0.00 0.00 0.00 27 999.4
20240302090018 37 320 1.0 0.0 0.00 0.00 0.00 35 1000.1
20240302084536 40 330 0.0 0.0 0.00 0.00 0.00 33 1000.3
20240302083009 38 332 1.0 0.0 0.00 0.00 0.00 36 1000.0
20240302081547 39 333 1.0 0.0 0.00 0.00 0.00 33 1000.1
20240302080028 41 330 1.0 0.0 0.00 0.00 0.00 31 1000.5
20240302074555 38 302 2.0 0.0 0.00 0.00 0.00 36 1000.5
20240302073040 40 329 2.0 0.0 0.00 0.00 0.00 34 1000.3
20240302071542 41 320 1.0 0.0 0.00 0.00 0.00 32 1000.5
20240302070031 41 325 1.0 0.0 0.00 0.00 0.00 32 1000.3
20240302064523 42 313 0.0 0.0 0.00 0.00 0.00 31 1000.7
20240302063112 42 320 1.0 0.0 0.00 0.00 0.00 33 1000.4
20240302063008 42 319 1.0 0.0 0.00 0.00 0.00 33 1000.4
20240302061557 43 315 1.0 0.0 0.00 0.00 0.00 28 1000.4
20240302060033 42 302 0.0 0.0 0.00 0.00 0.00 32 1001.2
20240302054538 43 349 0.0 0.0 0.00 0.00 0.00 32 1000.7
20240302053008 45 344 2.0 0.0 0.00 0.00 0.00 28 1000.8
20240302051541 45 333 1.0 0.0 0.00 0.00 0.00 31 1000.5
20240302050035 45 337 0.0 0.0 0.00 0.00 0.00 30 1001.3
20240302044532 45 309 1.0 0.0 0.00 0.00 0.00 32 1000.9
20240302043033 47 311 0.0 0.0 0.00 0.00 0.00 28 1001.1
20240302041521 47 316 0.0 0.0 0.00 0.00 0.00 29 1000.7
20240302040016 48 319 0.0 0.0 0.00 0.00 0.00 28 1001.6
20240302034508 48 315 1.0 0.0 0.00 0.00 0.00 28 1001.5
20240302033104 49 326 0.0 0.0 0.00 0.00 0.00 26 1001.2
20240302031603 50 326 0.0 0.0 0.00 0.00 0.00 25 1001.2
20240302030034 51 326 0.0 0.0 0.00 0.00 0.00 24 1002.4
20240302024517 51 325 0.0 0.0 0.00 0.00 0.00 23 1001.9
20240302023041 52 325 1.0 0.0 0.00 0.00 0.00 22 1001.4
20240302021539 54 227 0.0 0.0 0.00 0.00 0.00 20 1001.3
20240302020032 55 227 1.0 0.0 0.00 0.00 0.00 19 1002.1
20240302014523 58 21 0.0 0.0 0.00 0.00 0.00 17 1001.5
20240302013023 60 21 0.0 0.0 0.00 0.00 0.00 15 1001.1
20240302011526 60 27 0.0 0.0 0.00 0.00 0.00 14 1001.0
20240302010015 61 17 1.0 0.0 0.00 0.00 0.00 14 1001.4
20240302004551 62 8 1.0 0.0 0.00 0.00 0.00 13 1001.3
20240302003043 62 30 1.0 0.0 0.00 0.00 0.00 12 1001.1
20240302001533 62 73 2.0 0.0 0.00 0.00 0.00 12 1000.9
20240302000008 63 42 3.0 0.0 0.00 0.00 0.00 13 1000.9
20240301234510 63 75 4.0 0.0 0.00 0.00 0.00 12 1000.5
20240301233059 63 69 3.0 0.0 0.00 0.00 0.00 11 1000.6
20240301233003 64 44 3.0 0.0 0.00 0.00 0.00 11 1000.6
20240301231551 63 47 4.0 0.0 0.00 0.00 0.00 11 1000.6
20240301230047 64 71 2.0 0.0 0.00 0.00 0.00 11 1000.8
20240301224543 64 32 3.0 0.0 0.00 0.00 0.00 11 1000.9
20240301223035 63 24 4.0 0.0 0.00 0.00 0.00 11 1000.9
20240301221525 64 41 6.0 0.0 0.00 0.00 0.00 11 1000.6
20240301220013 65 219 2.0 0.0 0.00 0.00 0.00 11 1000.3
20240301214546 64 56 3.0 0.0 0.00 0.00 0.00 11 1000.6
20240301213045 64 62 4.0 0.0 0.00 0.00 0.00 11 1000.3
20240301211538 65 30 2.0 0.0 0.00 0.00 0.00 11 1000.4
20240301210014 65 78 2.0 0.0 0.00 0.00 0.00 11 1000.2
20240301204553 63 65 3.0 0.0 0.00 0.00 0.00 12 1000.4
20240301203059 62 35 4.0 0.0 0.00 0.00 0.00 11 1000.7
20240301201537 64 124 2.0 0.0 0.00 0.00 0.00 11 1001.3
20240301200017 64 147 3.0 0.0 0.00 0.00 0.00 12 1001.2
20240301194556 62 155 5.0 0.0 0.00 0.00 0.00 12 1001.3
20240301193052 63 0 2.0 0.0 0.00 0.00 0.00 12 1001.7
20240301191542 62 4 2.0 0.0 0.00 0.00 0.00 11 1002.2
20240301190030 61 73 4.0 0.0 0.00 0.00 0.00 12 1002.4